SCP
-0 -0 -0 -0 -0 -0 -0 -0 -0 -0 0 0 0 -0 -0 -0 -0 -0 0 -0 0 0 0 0 0 0 0 -0 0 0 0 0 0 0 0 0 0 0 0 0 0 0 0 0 0 0 0 0 0 0 0 0 0 0
-0 -0 -0 -0 -0 -0 -0 -0 -0 0 0 0 0 0 0 0 0 0 0 0 0 0 0 0 0 0 -0 -0 -0 0 0 0 0 0 0 0 0 0 0 0 0 0 0 0 0 0 0 0 0 0 0 0 0 0
-0 -0 -0 -0 -0 -0 -0 -0 -0 -0 0 0 0 0 0 0 0 0 0 0 0 0 0 0 0 0 0 0 -0 -0 0 0 0 0 0 -0 0 0 0 0 0 0 0 0 0 0 0 0 0 0 0 0 0 0
-0 -0 -0 -0 -0 -0 -0 -0 -0 -0 0 0 0 0 0 0 -0 -0 0 0 0 -0 0 0 0 0 0 0 0 0 0 0 0 0 -0 0 0 -0 0 0 0 0 0 0 -0 -0 -0 -0 -0 -0 -0 0 0 0
-0 -0 -0 -0 -0 -0 -0 -0 -0 0 0 0 0 0 0 0 0 0 0 0 0 -0 -0 0 0 0 0 0 -0 0 0 0 0 0 -0 0 -0 -0 -0 -0 -0 -0 0 -0 0 -0 -0 -0 -0 -0 -0 -0 0 0
-0 -0 -0 -0 -0 -0 -0 -0 -0 0 0 0 0 0 0 0 0 0 0 0 0 0 0 0 0 0 0 0 0 0 0 0 0 0 0 0 0 0 0 0 0 0 0 -0 -0 -0 -0 -0 -0 -0 -0 -0 -0 0
0 -0 -0 -0 -0 -0 -0 -0 -0 0 0 0 0 0 0 0 0 0 0 0 0 0 0 0 0 0 0 0 0 0 0 0 0 0 0 0 0 0 0 0 0 0 -0 -0 -0 -0 -0 -0 -0 -0 -0 0 0 0
0 -0 -0 -0 -0 -0 -0 -0 -0 -0 0 0 0 0 0 0 0 0 0 0 0 0 0 0 0 0 0 -0 0 0 0 0 0 0 0 0 0 0 0 -0 0 -0 -0 -0 -0 0 -0 -0 0 0 0 0 0 0
-0 -0 -0 -0 -0 -0 -0 -0 -0 -0 0 0 0 0 0 0 0 0 0 0 0 0 0 0 0 0 0 -0 0 0 0 0 0 0 0 0 0 0 -0 -0 -0 0 0 0 0 0 0 0 0 0 0 0 0 0
-0 -0 -0 -0 -0 -0 -0 -0 -0 -0 -0 0 0 0 0 0 0 0 0 0 0 0 0 0 0 0 0 0 0 0 0 0 0 0 0 0 0 0 0 0 0 0 0 0 0 0 -0 0 0 0 0 -0 0 0
-0 -0 -0 -0 -0 -0 -0 -0 -0 -0 0 0 0 0 0 0 0 0 0 0 0 0 0 0 0 0 0 0 0 0 0 0 0 0 0 0 0 0 0 0 0 0 0 0 0 0 0 0 0 0 0 -0 0 0
-0 -0 -0 -0 -0 -0 -0 -0 -0 0 0 0 0 0 0 0 0 0 0 0 0 0 0 0 0 0 0 0 0 0 0 0 0 0 0 0 0 0 0 0 0 0 0 0 0 0 0 0 0 0 0 0 0 0
-0 -0 -0 -0 -0 -0 -0 -0 -0 0 0 0 0 0 0 0 0 0 0 0 0 0 0 0 0 0 0 0 0 0 0 0 0 0 0 0 0 0 0 0 0 0 0 0 0 0 0 0 0 0 0 0 0 0
-0 -0 -0 -0 0 -0 -0 -0 0 0 0 0 0 0 0 0 0 0 0 0 0 0 0 0 0 0 0 0 0 0 0 0 0 0 0 0 0 0 0 0 0 0 0 0 0 -0 -0 0 0 0 0 0 0 0
-0 -0 -0 0 -0 0 -0 -0 -0 0 0 0 0 0 0 0 0 0 0 0 0 0 0 0 0 0 0 0 0 0 0 0 0 0 0 0 0 0 0 0 0 0 0 0 0 0 0 0 0 0 0 0 0 0
-0 -0 0 -0 -0 -0 -0 -0 0 0 0 0 0 0 0 0 0 0 0 0 0 0 0 0 0 0 0 0 0 0 0 0 0 0 0 0 0 0 0 0 0 0 0 0 0 0 0 0 0 0 0 0 0 0
-0 0 -0 -0 0 -0 0 0 0 0 0 0 0 0 0 0 0 0 0 0 0 0 0 0 0 0 0 0 0 0 0 0 0 0 0 0 0 0 0 0 0 0 0 0 0 0 0 0 0 0 0 0 0 0
0 0 0 -0 0 0 0 0 0 0 0 0 0 0 0 0 0 0 0 0 0 0 0 0 0 0 0 0 0 0 0 0 0 0 0 0 0 0 0 0 0 0 0 0 0 0 0 0 0 0 0 0 0 0
0 0 -0 0 0 0 0 0 0 0 0 0 0 0 0 0 0 0 0 0 0 0 0 0 0 0 0 0 0 0 0 0 0 0 0 0 0 0 0 0 0 0 0 0 0 0 0 0 0 0 0 0 0 0
-0 -0 -0 0 0 0 0 0 0 0 0 0 0 0 0 0 0 0 0 0 0 0 0 0 0 0 0 0 0 0 0 0 0 0 0 0 0 -0 0 0 0 0 0 0 -0 0 -0 0 0 0 0 0 0 0
0 0 0 0 0 0 0 0 0 0 0 0 0 0 0 0 0 0 0 0 0 0 0 0 0 0 0 0 0 0 0 0 0 0 0 0 0 -0 0 0 0 0 0 0 0 0 0 0 0 0 0 0 0 0
0 0 0 0 0 0 0 0 0 0 0 0 0 0 0 0 0 0 0 0 0 0 0 0 0 0 0 0 0 0 0 0 0 0 0 0 0 0 0 0 0 0 0 0 -0 0 -0 0 0 0 0 0 0 0
0 0 0 0 0 0 0 0 0 0 0 0 0 0 0 0 0 0 0 0 0 0 0 0 0 0 0 0 0 0 0 -0 -0 -0 0 0 0 0 0 0 -0 -0 0 0 0 0 0 0 0 0 0 0 0 0
0 0 0 0 0 0 0 0 0 0 0 0 0 0 0 0 0 0 0 0 0 0 0 0 0 0 0 0 0 0 0 0 -0 0 0 -0 0 0 -0 -0 0 0 0 0 0 0 0 0 0 0 0 0 0 0
0 0 0 0 0 0 0 0 0 0 0 0 0 0 0 0 0 0 0 0 0 0 0 0 0 0 0 0 0 0 0 -0 -0 -0 0 0 0 0 0 0 0 -0 0 0 0 0 0 0 0 0 0 0 0 0
0 0 0 0 0 0 0 0 0 0 0 0 0 0 0 0 0 0 0 0 0 0 0 -0 0 0 0 0 0 0 0 0 0 -0 0 -0 0 0 0 -0 0 0 0 0 0 -0 -0 -0 -0 0 0 0 0 0
0 0 0 0 0 0 0 0 0 0 0 0 0 0 0 0 0 0 0 0 0 0 0 0 0 -0 0 0 0 0 0 0 0 -0 0 -0 -0 0 0 0 0 -0 -0 0 -0 0 0 0 0 0 0 0 0 0
0 0 0 0 0 0 0 0 0 0 0 0 0 0 0 0 0 0 0 0 0 0 0 0 0 0 0 0 0 -0 0 0 0 0 0 0 -0 0 -0 -0 -0 0 0 -0 0 0 0 0 0 0 0 0 0 0
0 0 0 0 0 0 0 0 0 0 0 0 0 0 0 0 0 0 0 0 0 0 0 0 0 0 0 -0 0 0 0 0 0 0 0 0 -0 0 0 0 -0 0 0 0 0 0 0 0 0 0 0 0 0 0
0 0 0 0 0 0 0 0 0 0 0 0 0 0 0 0 0 0 0 0 0 0 0 0 0 0 0 0 0 0 0 0 0 0 0 0 -0 0 0 0 0 0 0 0 0 0 0 0 0 0 0 0 0 0
0 0 0 0 0 0 0 0 0 0 0 0 0 0 0 0 0 0 0 0 0 0 0 0 0 0 0 0 0 0 0 0 0 0 0 0 0 0 0 0 0 0 0 0 0 0 0 0 0 0 0 0 0 0
0 0 0 0 0 0 0 0 0 0 0 0 0 0 0 0 0 0 0 0 0 0 0 0 0 0 0 0 0 0 0 0 0 0 -0 -0 -0 0 0 0 0 0 0 0 0 0 0 0 0 0 0 0 0 0
0 0 0 0 0 0 0 0 0 0 0 0 0 0 0 0 0 0 0 0 0 0 0 0 0 0 0 0 0 0 0 0 0 0 0 0 0 0 0 0 0 0 0 0 0 0 0 0 0 0 0 0 0 0
Wind_Speed_500mb
29 28 27 28 31 33 31 29 26 28 33 38 35 40 45 49 41 35 35 31 25 32 28 29 28 28 30 28 17 31 7 15 12 15 11 7 9 5 7 6 12 13 13 12 16 4 9 6 4 7 13 24 20 17
28 29 28 27 28 29 30 27 23 22 25 33 35 33 35 38 35 34 30 20 22 25 18 21 26 25 21 19 19 24 13 14 13 11 10 9 9 8 11 3 12 3 11 6 7 4 6 14 19 18 19 18 15 15
27 28 27 26 26 26 26 26 24 21 21 25 31 33 35 29 26 31 30 25 14 2 20 32 32 26 21 20 17 11 10 16 12 10 7 6 6 12 10 12 11 8 16 9 6 15 15 17 14 15 16 15 12 12
27 27 27 26 24 22 23 25 24 23 23 25 26 25 28 27 14 24 31 33 17 13 8 17 22 23 21 21 15 11 10 12 11 13 17 8 7 14 9 10 11 11 11 4 16 17 17 14 16 17 17 15 11 9
29 27 27 27 25 23 23 23 22 21 22 24 22 17 18 28 22 7 8 29 25 16 15 13 12 23 17 18 20 17 15 16 9 6 9 6 18 5 17 7 6 7 6 4 4 14 10 19 17 16 16 13 10 8
30 29 29 29 26 25 23 24 23 21 20 19 19 14 12 18 24 15 17 16 37 12 12 5 5 19 18 12 12 15 13 13 15 11 9 13 3 6 3 12 9 11 2 11 18 18 20 20 19 15 12 10 8 5
31 31 31 29 26 25 24 24 25 24 23 19 15 14 12 16 18 16 9 18 26 9 12 18 9 14 17 8 4 8 8 12 12 9 9 11 8 6 5 3 9 13 16 19 20 21 18 15 16 12 8 7 6 8
32 33 33 29 25 26 25 24 25 24 24 19 15 14 13 11 7 5 16 16 22 7 7 9 9 9 18 18 9 10 13 1 9 5 1 10 10 12 1 15 13 16 18 17 12 4 9 10 9 10 11 11 11 11
33 35 33 28 25 26 26 25 23 20 17 17 12 7 2 6 11 12 16 12 11 10 11 5 8 9 14 20 16 12 10 5 1 4 7 9 4 2 12 16 14 14 12 10 9 7 5 6 11 11 15 21 13 21
35 37 31 26 25 26 25 25 20 16 18 14 8 9 3 8 14 10 6 4 3 2 5 8 14 12 21 23 9 7 6 4 4 5 6 5 3 7 6 8 12 9 2 4 3 11 14 16 14 16 11 14 16 9
36 36 30 26 25 24 25 24 18 20 15 12 8 7 11 11 6 4 4 7 6 4 8 13 19 23 17 16 14 9 6 5 1 4 4 5 3 11 15 12 11 10 9 8 13 18 19 21 18 17 11 11 2 8
36 36 32 27 23 23 23 23 17 17 16 11 9 8 8 5 4 7 5 2 3 6 13 18 22 19 12 12 7 10 4 7 3 1 5 4 0 10 4 5 5 4 7 9 10 7 6 6 5 1 3 6 8 6
36 37 32 25 23 22 21 19 16 20 16 5 4 5 6 1 6 4 7 4 7 15 17 28 25 19 7 6 8 7 5 3 3 5 3 9 8 5 5 7 9 4 3 5 3 4 2 7 3 5 8 9 8 11
36 36 27 22 25 23 21 16 15 17 8 7 5 3 5 4 3 5 9 10 14 16 22 25 23 15 15 6 9 7 5 6 4 4 5 6 10 5 3 4 11 7 2 5 3 3 5 7 7 4 9 9 11 16
36 33 22 23 25 24 20 13 13 12 7 7 6 5 3 6 9 7 11 13 10 15 24 24 26 14 13 7 5 5 5 2 4 5 5 21 8 6 4 4 4 4 3 3 4 8 9 8 7 10 12 17 12 13
35 28 22 28 25 23 17 14 11 7 7 7 7 11 6 17 10 4 8 13 13 23 25 15 13 8 7 3 8 6 5 1 6 4 5 10 7 8 7 7 6 5 5 4 3 3 6 9 12 15 19 18 13 18
30 14 34 31 24 21 15 11 8 9 8 6 9 8 13 14 10 14 12 18 18 23 12 12 8 4 11 6 5 6 3 5 9 5 4 2 7 10 9 10 9 9 8 5 7 11 14 15 18 21 16 18 25 18
30 32 30 29 27 21 11 8 8 9 13 16 13 13 4 11 15 19 6 9 15 19 18 9 12 12 8 9 5 10 22 9 6 6 6 10 13 13 12 12 11 11 10 8 9 13 17 17 14 9 14 19 21 14
39 35 28 25 24 16 6 6 8 10 13 12 16 17 15 15 14 12 15 10 11 14 16 10 7 7 8 20 24 29 18 10 8 10 14 16 17 17 15 15 14 13 12 13 15 17 11 10 12 12 17 21 25 20
34 30 22 23 16 5 8 8 9 12 11 9 14 19 18 18 15 16 19 14 18 12 10 6 13 26 24 28 18 20 19 16 15 16 21 20 21 23 21 16 15 13 18 17 20 5 9 17 9 15 19 24 20 17
29 19 24 21 10 12 11 10 12 13 15 15 17 12 17 18 19 24 24 16 8 24 24 24 24 22 21 21 17 17 19 18 16 14 19 21 5 7 7 11 14 17 15 14 10 17 22 14 16 16 18 21 14 24
16 27 24 11 8 9 13 16 14 8 10 20 21 21 19 20 24 13 7 22 24 30 23 22 25 18 23 18 19 20 21 20 20 21 20 20 18 13 8 7 11 13 14 17 17 13 12 10 11 13 16 19 25 24
28 25 12 9 9 9 11 9 11 11 10 9 8 10 12 14 9 6 15 18 18 17 16 15 14 15 17 18 16 16 17 19 20 20 12 15 16 13 8 9 13 13 17 17 7 9 10 12 9 12 15 20 25 26
34 8 9 9 15 10 7 11 13 13 12 17 13 13 16 13 7 19 16 26 13 16 13 7 9 15 13 11 15 14 12 10 7 6 8 9 8 13 16 18 19 18 9 5 6 7 8 10 14 15 16 21 25 27
10 10 10 13 11 9 10 10 20 17 15 19 19 15 13 5 12 17 22 23 4 16 11 20 6 15 13 17 9 10 5 6 8 6 3 7 13 16 15 12 12 11 10 12 13 10 12 15 18 19 23 23 22 25
12 12 14 10 10 12 9 8 8 13 16 17 11 11 8 12 13 12 12 5 7 13 30 35 14 12 11 13 14 15 13 9 9 11 7 9 9 11 11 17 18 18 21 19 16 17 18 18 20 24 27 26 25 22
10 14 19 18 15 15 14 21 25 18 17 19 16 12 5 7 8 5 8 15 17 17 20 20 13 28 16 13 15 15 15 16 17 18 16 17 18 20 23 24 22 26 22 19 22 21 23 22 24 26 27 28 28 29
18 12 23 23 25 21 24 24 20 14 16 14 10 8 6 4 8 20 17 21 20 22 26 30 27 29 31 19 23 23 18 20 20 22 21 24 28 30 28 27 27 26 24 27 25 24 23 25 25 27 29 32 30 26
16 17 20 24 25 15 15 17 18 19 19 15 19 17 26 31 25 26 27 18 20 29 32 31 29 25 19 21 23 26 29 31 30 35 20 33 34 31 23 24 22 20 22 22 28 27 23 27 27 28 24 23 21 27
23 24 21 15 19 15 19 12 18 23 24 27 26 27 28 19 6 13 18 20 24 28 30 32 31 29 24 20 24 23 28 35 34 31 31 27 35 27 20 16 19 22 23 20 18 17 20 18 20 16 10 18 22 26
12 13 15 18 16 16 17 17 22 25 26 26 27 30 30 12 12 19 30 28 21 23 23 28 29 25 35 8 6 16 23 19 16 23 24 38 23 26 20 21 19 18 17 16 19 21 20 17 9 9 14 11 14 17
14 17 12 14 11 14 22 25 23 24 25 25 26 24 21 25 5 17 33 31 27 25 27 29 32 37 35 34 27 22 22 22 41 35 23 31 21 17 15 14 14 14 14 16 12 11 2 3 14 11 13 23 24 22
12 11 9 8 12 14 12 9 18 16 15 16 15 9 10 11 12 17 22 29 28 31 34 35 33 33 30 23 17 16 15 21 21 20 25 25 25 23 14 11 10 8 12 20 25 26 11 13 19 14 13 13 14 14
Wind_Direction_500mb
23 24 23 22 23 23 24 31 34 35 32 27 26 25 28 35 44 35 34 44 52 78 55 38 30 18 359 356 339 0 358 326 316 315 345 358 333 325 250 339 339 354 336 15 334 356 86 16 90 24 98 111 126 128
18 19 17 16 17 18 18 19 20 23 22 24 23 17 15 20 34 37 27 26 44 63 73 52 30 19 13 354 330 333 358 35 342 343 0 337 348 349 339 9 2 70 25 57 64 81 35 49 90 103 114 126 128 122
13 15 10 10 10 8 11 10 8 6 358 358 4 4 5 15 35 35 17 14 353 128 58 39 21 14 21 10 12 343 20 354 3 319 282 303 25 346 13 42 36 34 2 100 52 116 107 101 104 109 111 121 130 124
8 8 5 5 360 357 359 1 5 4 359 354 352 4 17 17 49 53 26 23 16 303 44 58 22 25 22 20 15 6 350 331 292 325 41 43 38 25 49 62 31 36 22 2 115 110 117 99 105 110 115 125 122 120
3 0 359 358 352 348 349 351 353 353 356 358 359 11 30 26 20 348 7 22 11 349 352 72 37 18 15 22 29 27 22 332 5 27 50 30 77 68 96 121 116 333 60 347 117 134 96 125 134 132 137 142 142 136
357 355 354 351 347 345 342 344 342 337 334 341 350 349 356 6 2 326 213 18 1 2 305 233 140 21 3 3 7 19 15 3 32 4 72 94 31 314 307 78 41 76 44 82 104 116 120 135 145 154 145 158 170 176
352 353 351 346 342 342 343 341 339 336 330 316 314 329 328 344 3 18 13 331 357 32 297 329 132 27 358 304 22 353 45 29 359 73 28 65 79 318 59 119 97 103 106 110 117 125 133 159 161 181 193 199 221 239
351 351 348 341 339 342 343 341 339 338 334 326 306 296 322 328 319 30 342 344 2 308 342 348 338 34 14 340 332 359 309 91 22 77 359 14 72 57 153 178 125 131 127 143 141 136 148 165 174 204 224 227 246 253
348 347 342 339 340 341 343 343 341 342 341 345 346 341 345 349 329 326 327 354 41 358 335 324 4 321 353 317 332 339 285 353 284 14 62 77 16 269 158 152 155 162 177 174 186 224 226 221 243 262 258 255 258 254
347 344 340 342 339 340 345 347 344 338 338 344 7 271 266 333 321 326 261 263 346 344 324 350 349 332 331 327 307 349 283 248 214 69 121 100 245 150 187 172 170 183 136 231 276 276 280 268 267 259 287 297 262 283
343 340 341 339 337 342 346 348 350 352 9 344 322 353 321 324 307 284 319 335 317 289 6 340 359 321 332 324 314 301 299 274 176 142 235 138 126 230 204 203 213 218 242 276 287 296 314 310 318 308 281 262 317 293
338 338 337 332 333 338 340 344 349 1 332 330 321 287 323 301 341 290 324 218 328 355 331 336 328 322 306 326 297 279 280 321 5 311 47 25 73 65 59 220 215 246 283 303 314 322 302 325 338 300 272 346 302 321
335 336 332 329 334 335 334 337 338 342 340 327 308 304 0 241 3 288 338 342 342 337 324 330 329 318 258 272 283 287 271 303 226 61 103 225 85 185 147 138 142 159 289 288 285 297 238 289 302 349 353 345 324 313
334 332 326 328 336 333 331 326 329 338 342 290 302 328 268 261 353 332 331 330 334 315 326 320 310 311 313 332 253 287 257 280 26 69 245 223 135 153 186 217 205 211 237 308 318 285 295 327 319 330 330 322 311 310
332 330 321 328 332 328 323 312 320 327 306 289 275 237 265 317 250 338 318 294 300 323 309 319 308 239 274 245 244 297 274 59 155 239 280 103 148 188 199 189 199 241 291 256 267 312 309 314 305 310 312 309 304 322
332 333 327 328 326 321 314 308 303 304 269 258 244 264 242 253 276 261 289 321 327 323 310 300 269 286 265 261 276 252 349 275 267 0 63 117 174 206 231 231 229 250 263 270 273 303 300 289 285 293 300 303 319 328
337 335 321 323 319 317 303 309 280 250 261 247 246 248 283 284 304 310 333 327 338 305 325 318 317 288 285 255 270 19 276 304 268 304 168 131 191 215 226 225 221 227 219 232 282 293 293 294 288 293 302 310 319 303
331 324 324 323 324 329 301 264 261 256 248 256 264 300 268 276 283 297 317 324 318 327 327 340 293 289 290 299 299 273 300 320 329 219 223 176 204 211 216 214 205 206 223 258 298 299 307 302 309 273 288 297 304 295
325 324 324 319 324 323 283 249 233 266 259 284 273 278 274 274 272 268 287 287 292 299 290 297 282 296 306 296 293 301 313 295 269 268 280 226 228 220 211 205 210 223 248 272 282 295 293 295 281 310 311 318 321 324
313 314 312 318 311 289 267 244 229 265 274 298 278 272 265 270 296 297 283 282 271 281 276 239 249 276 322 328 304 288 288 291 288 287 283 272 241 277 202 208 220 229 244 271 304 218 281 292 300 298 315 313 300 308
321 314 318 317 300 238 263 266 243 262 285 269 280 283 274 272 261 271 251 242 224 259 272 293 301 314 327 308 302 302 294 291 290 294 290 301 285 307 208 213 224 256 261 271 241 274 264 311 316 313 313 312 317 313
303 318 319 286 249 246 256 237 257 287 261 264 285 267 267 270 269 279 301 282 263 272 290 301 311 314 313 303 301 296 295 295 293 284 274 272 279 288 263 199 194 267 262 277 280 268 301 313 308 310 316 327 324 323
325 321 302 240 241 243 258 238 242 232 247 259 250 265 267 258 265 299 275 282 283 310 295 309 290 286 297 303 299 300 299 296 292 277 267 256 254 251 225 233 266 230 230 235 237 285 296 298 297 329 322 331 332 329
324 276 252 239 216 255 241 235 227 255 251 254 261 268 280 286 308 276 284 288 317 270 260 236 270 281 268 282 297 302 307 307 316 261 245 245 220 206 213 209 231 239 249 251 268 286 291 296 304 308 317 331 330 327
281 249 229 245 235 236 237 236 230 241 260 273 269 269 285 257 284 289 276 276 314 1 320 272 292 274 285 296 277 274 293 256 268 289 160 212 225 210 213 226 235 235 232 244 250 263 290 293 296 305 304 303 305 305
232 224 208 226 213 218 228 259 243 259 270 279 273 280 279 282 273 262 292 300 275 344 355 320 281 263 266 273 275 258 248 253 264 272 278 262 260 271 259 268 259 245 247 244 256 275 283 294 300 306 305 305 303 297
246 238 220 231 253 251 260 269 277 280 276 279 280 275 239 257 260 280 315 338 313 328 310 306 296 283 281 263 249 241 245 250 249 260 271 275 273 264 264 271 270 270 274 261 257 269 274 277 288 302 308 310 307 298
239 260 243 249 230 252 264 280 289 280 274 265 254 258 259 276 310 322 302 298 321 313 310 303 294 279 265 249 267 270 237 243 248 254 270 277 273 264 263 262 256 262 264 260 264 263 271 277 289 301 305 304 305 304
235 227 231 246 246 249 256 261 262 275 297 297 290 294 292 290 306 299 304 321 307 311 307 306 313 303 291 275 261 268 271 263 260 252 240 266 288 299 257 263 260 257 261 270 255 250 252 261 279 293 300 300 308 311
246 230 228 245 250 248 255 263 287 289 290 289 284 285 281 284 323 332 340 338 326 316 309 303 296 295 280 267 279 292 285 267 258 265 269 275 288 298 297 268 264 273 269 253 252 253 269 286 302 285 305 333 331 325
262 228 242 250 263 268 286 296 293 290 283 275 271 270 272 273 158 57 33 16 2 354 347 334 328 331 330 277 319 309 290 281 266 240 255 262 253 286 280 280 274 269 263 256 256 264 269 283 296 334 352 350 351 345
229 227 247 265 277 297 295 284 286 290 289 281 274 269 271 265 245 32 14 9 6 0 350 343 328 324 323 332 334 319 297 270 278 258 259 260 264 271 273 270 263 263 264 268 268 278 280 92 77 67 2 324 328 331
219 237 259 287 289 275 268 271 300 295 291 280 283 305 324 34 76 26 3 359 3 351 344 334 326 322 314 311 333 336 316 267 263 249 248 250 254 245 248 254 227 215 217 223 216 217 158 20 22 357 331 352 14 38
Wind_Speed_850mb
29 28 27 28 31 33 31 29 26 28 33 38 35 40 45 49 41 35 35 31 25 32 28 29 28 28 30 28 17 31 7 15 12 15 11 7 9 5 7 6 12 13 13 12 16 4 9 6 4 7 13 24 20 17
28 29 28 27 28 29 30 27 23 22 25 33 35 33 35 38 35 34 30 20 22 25 18 21 26 25 21 19 19 24 13 14 13 11 10 9 9 8 11 3 12 3 11 6 7 4 6 14 19 18 19 18 15 15
27 28 27 26 26 26 26 26 24 21 21 25 31 33 35 29 26 31 30 25 14 2 20 32 32 26 21 20 17 11 10 16 12 10 7 6 6 12 10 12 11 8 16 9 6 15 15 17 14 15 16 15 12 12
27 27 27 26 24 22 23 25 24 23 23 25 26 25 28 27 14 24 31 33 17 13 8 17 22 23 21 21 15 11 10 12 11 13 17 8 7 14 9 10 11 11 11 4 16 17 17 14 16 17 17 15 11 9
29 27 27 27 25 23 23 23 22 21 22 24 22 17 18 28 22 7 8 29 25 16 15 13 12 23 17 18 20 17 15 16 9 6 9 6 18 5 17 7 6 7 6 4 4 14 10 19 17 16 16 13 10 8
30 29 29 29 26 25 23 24 23 21 20 19 19 14 12 18 24 15 17 16 37 12 12 5 5 19 18 12 12 15 13 13 15 11 9 13 3 6 3 12 9 11 2 11 18 18 20 20 19 15 12 10 8 5
31 31 31 29 26 25 24 24 25 24 23 19 15 14 12 16 18 16 9 18 26 9 12 18 9 14 17 8 4 8 8 12 12 9 9 11 8 6 5 3 9 13 16 19 20 21 18 15 16 12 8 7 6 8
32 33 33 29 25 26 25 24 25 24 24 19 15 14 13 11 7 5 16 16 22 7 7 9 9 9 18 18 9 10 13 1 9 5 1 10 10 12 1 15 13 16 18 17 12 4 9 10 9 10 11 11 11 11
33 35 33 28 25 26 26 25 23 20 17 17 12 7 2 6 11 12 16 12 11 10 11 5 8 9 14 20 16 12 10 5 1 4 7 9 4 2 12 16 14 14 12 10 9 7 5 6 11 11 15 21 13 21
35 37 31 26 25 26 25 25 20 16 18 14 8 9 3 8 14 10 6 4 3 2 5 8 14 12 21 23 9 7 6 4 4 5 6 5 3 7 6 8 12 9 2 4 3 11 14 16 14 16 11 14 16 9
36 36 30 26 25 24 25 24 18 20 15 12 8 7 11 11 6 4 4 7 6 4 8 13 19 23 17 16 14 9 6 5 1 4 4 5 3 11 15 12 11 10 9 8 13 18 19 21 18 17 11 11 2 8
36 36 32 27 23 23 23 23 17 17 16 11 9 8 8 5 4 7 5 2 3 6 13 18 22 19 12 12 7 10 4 7 3 1 5 4 0 10 4 5 5 4 7 9 10 7 6 6 5 1 3 6 8 6
36 37 32 25 23 22 21 19 16 20 16 5 4 5 6 1 6 4 7 4 7 15 17 28 25 19 7 6 8 7 5 3 3 5 3 9 8 5 5 7 9 4 3 5 3 4 2 7 3 5 8 9 8 11
36 36 27 22 25 23 21 16 15 17 8 7 5 3 5 4 3 5 9 10 14 16 22 25 23 15 15 6 9 7 5 6 4 4 5 6 10 5 3 4 11 7 2 5 3 3 5 7 7 4 9 9 11 16
36 33 22 23 25 24 20 13 13 12 7 7 6 5 3 6 9 7 11 13 10 15 24 24 26 14 13 7 5 5 5 2 4 5 5 21 8 6 4 4 4 4 3 3 4 8 9 8 7 10 12 17 12 13
35 28 22 28 25 23 17 14 11 7 7 7 7 11 6 17 10 4 8 13 13 23 25 15 13 8 7 3 8 6 5 1 6 4 5 10 7 8 7 7 6 5 5 4 3 3 6 9 12 15 19 18 13 18
30 14 34 31 24 21 15 11 8 9 8 6 9 8 13 14 10 14 12 18 18 23 12 12 8 4 11 6 5 6 3 5 9 5 4 2 7 10 9 10 9 9 8 5 7 11 14 15 18 21 16 18 25 18
30 32 30 29 27 21 11 8 8 9 13 16 13 13 4 11 15 19 6 9 15 19 18 9 12 12 8 9 5 10 22 9 6 6 6 10 13 13 12 12 11 11 10 8 9 13 17 17 14 9 14 19 21 14
39 35 28 25 24 16 6 6 8 10 13 12 16 17 15 15 14 12 15 10 11 14 16 10 7 7 8 20 24 29 18 10 8 10 14 16 17 17 15 15 14 13 12 13 15 17 11 10 12 12 17 21 25 20
34 30 22 23 16 5 8 8 9 12 11 9 14 19 18 18 15 16 19 14 18 12 10 6 13 26 24 28 18 20 19 16 15 16 21 20 21 23 21 16 15 13 18 17 20 5 9 17 9 15 19 24 20 17
29 19 24 21 10 12 11 10 12 13 15 15 17 12 17 18 19 24 24 16 8 24 24 24 24 22 21 21 17 17 19 18 16 14 19 21 5 7 7 11 14 17 15 14 10 17 22 14 16 16 18 21 14 24
16 27 24 11 8 9 13 16 14 8 10 20 21 21 19 20 24 13 7 22 24 30 23 22 25 18 23 18 19 20 21 20 20 21 20 20 18 13 8 7 11 13 14 17 17 13 12 10 11 13 16 19 25 24
28 25 12 9 9 9 11 9 11 11 10 9 8 10 12 14 9 6 15 18 18 17 16 15 14 15 17 18 16 16 17 19 20 20 12 15 16 13 8 9 13 13 17 17 7 9 10 12 9 12 15 20 25 26
34 8 9 9 15 10 7 11 13 13 12 17 13 13 16 13 7 19 16 26 13 16 13 7 9 15 13 11 15 14 12 10 7 6 8 9 8 13 16 18 19 18 9 5 6 7 8 10 14 15 16 21 25 27
10 10 10 13 11 9 10 10 20 17 15 19 19 15 13 5 12 17 22 23 4 16 11 20 6 15 13 17 9 10 5 6 8 6 3 7 13 16 15 12 12 11 10 12 13 10 12 15 18 19 23 23 22 25
12 12 14 10 10 12 9 8 8 13 16 17 11 11 8 12 13 12 12 5 7 13 30 35 14 12 11 13 14 15 13 9 9 11 7 9 9 11 11 17 18 18 21 19 16 17 18 18 20 24 27 26 25 22
10 14 19 18 15 15 14 21 25 18 17 19 16 12 5 7 8 5 8 15 17 17 20 20 13 28 16 13 15 15 15 16 17 18 16 17 18 20 23 24 22 26 22 19 22 21 23 22 24 26 27 28 28 29
18 12 23 23 25 21 24 24 20 14 16 14 10 8 6 4 8 20 17 21 20 22 26 30 27 29 31 19 23 23 18 20 20 22 21 24 28 30 28 27 27 26 24 27 25 24 23 25 25 27 29 32 30 26
16 17 20 24 25 15 15 17 18 19 19 15 19 17 26 31 25 26 27 18 20 29 32 31 29 25 19 21 23 26 29 31 30 35 20 33 34 31 23 24 22 20 22 22 28 27 23 27 27 28 24 23 21 27
23 24 21 15 19 15 19 12 18 23 24 27 26 27 28 19 6 13 18 20 24 28 30 32 31 29 24 20 24 23 28 35 34 31 31 27 35 27 20 16 19 22 23 20 18 17 20 18 20 16 10 18 22 26
12 13 15 18 16 16 17 17 22 25 26 26 27 30 30 12 12 19 30 28 21 23 23 28 29 25 35 8 6 16 23 19 16 23 24 38 23 26 20 21 19 18 17 16 19 21 20 17 9 9 14 11 14 17
14 17 12 14 11 14 22 25 23 24 25 25 26 24 21 25 5 17 33 31 27 25 27 29 32 37 35 34 27 22 22 22 41 35 23 31 21 17 15 14 14 14 14 16 12 11 2 3 14 11 13 23 24 22
12 11 9 8 12 14 12 9 18 16 15 16 15 9 10 11 12 17 22 29 28 31 34 35 33 33 30 23 17 16 15 21 21 20 25 25 25 23 14 11 10 8 12 20 25 26 11 13 19 14 13 13 14 14
Wind_Direction_850mb
23 24 23 22 23 23 24 31 34 35 32 27 26 25 28 35 44 35 34 44 52 78 55 38 30 18 359 356 339 0 358 326 316 315 345 358 333 325 250 339 339 354 336 15 334 356 86 16 90 24 98 111 126 128
18 19 17 16 17 18 18 19 20 23 22 24 23 17 15 20 34 37 27 26 44 63 73 52 30 19 13 354 330 333 358 35 342 343 0 337 348 349 339 9 2 70 25 57 64 81 35 49 90 103 114 126 128 122
13 15 10 10 10 8 11 10 8 6 358 358 4 4 5 15 35 35 17 14 353 128 58 39 21 14 21 10 12 343 20 354 3 319 282 303 25 346 13 42 36 34 2 100 52 116 107 101 104 109 111 121 130 124
8 8 5 5 360 357 359 1 5 4 359 354 352 4 17 17 49 53 26 23 16 303 44 58 22 25 22 20 15 6 350 331 292 325 41 43 38 25 49 62 31 36 22 2 115 110 117 99 105 110 115 125 122 120
3 0 359 358 352 348 349 351 353 353 356 358 359 11 30 26 20 348 7 22 11 349 352 72 37 18 15 22 29 27 22 332 5 27 50 30 77 68 96 121 116 333 60 347 117 134 96 125 134 132 137 142 142 136
357 355 354 351 347 345 342 344 342 337 334 341 350 349 356 6 2 326 213 18 1 2 305 233 140 21 3 3 7 19 15 3 32 4 72 94 31 314 307 78 41 76 44 82 104 116 120 135 145 154 145 158 170 176
352 353 351 346 342 342 343 341 339 336 330 316 314 329 328 344 3 18 13 331 357 32 297 329 132 27 358 304 22 353 45 29 359 73 28 65 79 318 59 119 97 103 106 110 117 125 133 159 161 181 193 199 221 239
351 351 348 341 339 342 343 341 339 338 334 326 306 296 322 328 319 30 342 344 2 308 342 348 338 34 14 340 332 359 309 91 22 77 359 14 72 57 153 178 125 131 127 143 141 136 148 165 174 204 224 227 246 253
348 347 342 339 340 341 343 343 341 342 341 345 346 341 345 349 329 326 327 354 41 358 335 324 4 321 353 317 332 339 285 353 284 14 62 77 16 269 158 152 155 162 177 174 186 224 226 221 243 262 258 255 258 254
347 344 340 342 339 340 345 347 344 338 338 344 7 271 266 333 321 326 261 263 346 344 324 350 349 332 331 327 307 349 283 248 214 69 121 100 245 150 187 172 170 183 136 231 276 276 280 268 267 259 287 297 262 283
343 340 341 339 337 342 346 348 350 352 9 344 322 353 321 324 307 284 319 335 317 289 6 340 359 321 332 324 314 301 299 274 176 142 235 138 126 230 204 203 213 218 242 276 287 296 314 310 318 308 281 262 317 293
338 338 337 332 333 338 340 344 349 1 332 330 321 287 323 301 341 290 324 218 328 355 331 336 328 322 306 326 297 279 280 321 5 311 47 25 73 65 59 220 215 246 283 303 314 322 302 325 338 300 272 346 302 321
335 336 332 329 334 335 334 337 338 342 340 327 308 304 0 241 3 288 338 342 342 337 324 330 329 318 258 272 283 287 271 303 226 61 103 225 85 185 147 138 142 159 289 288 285 297 238 289 302 349 353 345 324 313
334 332 326 328 336 333 331 326 329 338 342 290 302 328 268 261 353 332 331 330 334 315 326 320 310 311 313 332 253 287 257 280 26 69 245 223 135 153 186 217 205 211 237 308 318 285 295 327 319 330 330 322 311 310
332 330 321 328 332 328 323 312 320 327 306 289 275 237 265 317 250 338 318 294 300 323 309 319 308 239 274 245 244 297 274 59 155 239 280 103 148 188 199 189 199 241 291 256 267 312 309 314 305 310 312 309 304 322
332 333 327 328 326 321 314 308 303 304 269 258 244 264 242 253 276 261 289 321 327 323 310 300 269 286 265 261 276 252 349 275 267 0 63 117 174 206 231 231 229 250 263 270 273 303 300 289 285 293 300 303 319 328
337 335 321 323 319 317 303 309 280 250 261 247 246 248 283 284 304 310 333 327 338 305 325 318 317 288 285 255 270 19 276 304 268 304 168 131 191 215 226 225 221 227 219 232 282 293 293 294 288 293 302 310 319 303
331 324 324 323 324 329 301 264 261 256 248 256 264 300 268 276 283 297 317 324 318 327 327 340 293 289 290 299 299 273 300 320 329 219 223 176 204 211 216 214 205 206 223 258 298 299 307 302 309 273 288 297 304 295
325 324 324 319 324 323 283 249 233 266 259 284 273 278 274 274 272 268 287 287 292 299 290 297 282 296 306 296 293 301 313 295 269 268 280 226 228 220 211 205 210 223 248 272 282 295 293 295 281 310 311 318 321 324
313 314 312 318 311 289 267 244 229 265 274 298 278 272 265 270 296 297 283 282 271 281 276 239 249 276 322 328 304 288 288 291 288 287 283 272 241 277 202 208 220 229 244 271 304 218 281 292 300 298 315 313 300 308
321 314 318 317 300 238 263 266 243 262 285 269 280 283 274 272 261 271 251 242 224 259 272 293 301 314 327 308 302 302 294 291 290 294 290 301 285 307 208 213 224 256 261 271 241 274 264 311 316 313 313 312 317 313
303 318 319 286 249 246 256 237 257 287 261 264 285 267 267 270 269 279 301 282 263 272 290 301 311 314 313 303 301 296 295 295 293 284 274 272 279 288 263 199 194 267 262 277 280 268 301 313 308 310 316 327 324 323
325 321 302 240 241 243 258 238 242 232 247 259 250 265 267 258 265 299 275 282 283 310 295 309 290 286 297 303 299 300 299 296 292 277 267 256 254 251 225 233 266 230 230 235 237 285 296 298 297 329 322 331 332 329
324 276 252 239 216 255 241 235 227 255 251 254 261 268 280 286 308 276 284 288 317 270 260 236 270 281 268 282 297 302 307 307 316 261 245 245 220 206 213 209 231 239 249 251 268 286 291 296 304 308 317 331 330 327
281 249 229 245 235 236 237 236 230 241 260 273 269 269 285 257 284 289 276 276 314 1 320 272 292 274 285 296 277 274 293 256 268 289 160 212 225 210 213 226 235 235 232 244 250 263 290 293 296 305 304 303 305 305
232 224 208 226 213 218 228 259 243 259 270 279 273 280 279 282 273 262 292 300 275 344 355 320 281 263 266 273 275 258 248 253 264 272 278 262 260 271 259 268 259 245 247 244 256 275 283 294 300 306 305 305 303 297
246 238 220 231 253 251 260 269 277 280 276 279 280 275 239 257 260 280 315 338 313 328 310 306 296 283 281 263 249 241 245 250 249 260 271 275 273 264 264 271 270 270 274 261 257 269 274 277 288 302 308 310 307 298
239 260 243 249 230 252 264 280 289 280 274 265 254 258 259 276 310 322 302 298 321 313 310 303 294 279 265 249 267 270 237 243 248 254 270 277 273 264 263 262 256 262 264 260 264 263 271 277 289 301 305 304 305 304
235 227 231 246 246 249 256 261 262 275 297 297 290 294 292 290 306 299 304 321 307 311 307 306 313 303 291 275 261 268 271 263 260 252 240 266 288 299 257 263 260 257 261 270 255 250 252 261 279 293 300 300 308 311
246 230 228 245 250 248 255 263 287 289 290 289 284 285 281 284 323 332 340 338 326 316 309 303 296 295 280 267 279 292 285 267 258 265 269 275 288 298 297 268 264 273 269 253 252 253 269 286 302 285 305 333 331 325
262 228 242 250 263 268 286 296 293 290 283 275 271 270 272 273 158 57 33 16 2 354 347 334 328 331 330 277 319 309 290 281 266 240 255 262 253 286 280 280 274 269 263 256 256 264 269 283 296 334 352 350 351 345
229 227 247 265 277 297 295 284 286 290 289 281 274 269 271 265 245 32 14 9 6 0 350 343 328 324 323 332 334 319 297 270 278 258 259 260 264 271 273 270 263 263 264 268 268 278 280 92 77 67 2 324 328 331
219 237 259 287 289 275 268 271 300 295 291 280 283 305 324 34 76 26 3 359 3 351 344 334 326 322 314 311 333 336 316 267 263 249 248 250 254 245 248 254 227 215 217 223 216 217 158 20 22 357 331 352 14 38